Location: Haskovo
(41.9227°N, 25.5707°E)
Time: 22:10:17
(UTC+03:00)

ISS - Pass Details

Date: 24 May 2025
Orbit: 415 x 416 km, 51.6° (Epoch: 16 June)

Event Time Altitude Azimuth Distance (km) Brightness Sun altitude
Rises 22:30:40 0° 302° (WNW) 2,360 1.5 -16.6°
Reaches altitude 10° 22:32:47 10° 299° (WNW) 1,493 0.1 -16.9°
Maximum altitude 22:36:06 62° 218° (SW) 470 -3.7 -17.3°
Enters shadow 22:36:42 50° 168° (SSE) 534 -3.6 -17.3°
